Regional Weather Roundup
Issued by NWS

Home | Current Version | Previous Version | Graphics & Text | Print | Product List | Glossary On
Versions: 1 2 3 4 5 6 7 8 9 10 11 12 13 14 15 16 17 18 19 20 21 22 23 24 25 26 27 28 29 30 31 32 33 34 35 36 37 38 39 40 41 42 43 44 45 46 47 48 49 50
793
ASUS43 KDMX 231206
RWRIA

WEATHER ROUNDUP FOR IOWA
NATIONAL WEATHER SERVICE DES MOINES IA
600 AM CST THU FEB 23 2017

NOTE: "FAIR" INDICATES FEW OR NO CLOUDS BELOW 12,000 FEET WITH NO
SIGNIFICANT WEATHER AND/OR OBSTRUCTIONS TO VISIBILITY.

* - THESE STATIONS ARE NOT NWS STATIONS...THUS NOT UNDER NWS
QUALITY CONTROL.  THEY ALSO DO NOT REPORT WEATHER SUCH
AS PRECIPITATION OR FOG.

IAZ001>003-012>014-020>022-031>034-043>046-231300-
   NORTHWEST IOWA

CITY           SKY/WX    TMP DP  RH WIND       PRES   REMARKS
CARROLL *      CLOUDY    36  36 100 NE20      29.80F WCI  25
CHEROKEE *     CLOUDY    34  33  94 NE9G20    29.84F WCI  27
DENISON *      CLOUDY    36  34  93 NE15G28   29.79R WCI  26
LE MARS *      CLOUDY    34  32  93 N9G17     29.87S WCI  26
ORANGE CITY *  CLOUDY    34  32  93 NE10      29.85S WCI  26
SHELDON *      CLOUDY    32  32 100 NE15      29.84R WCI  22
SIOUX CITY     CLOUDY    37  32  82 NE9       29.85S WCI  30
6HR MIN TEMP:  37; 6HR MAX TEMP:  44;

SPENCER        CLOUDY    34  32  92 NE14      29.86R WCI  25
6HR MIN TEMP:  34; 6HR MAX TEMP:  36;

STORM LAKE *   CLOUDY    34  32  93 NE21G28   29.82S WCI  22
$$

IAZ055>058-069>071-079>083-090>094-231300-
   SOUTHWEST IOWA

CITY           SKY/WX    TMP DP  RH WIND       PRES   REMARKS
ATLANTIC *     CLOUDY    37  36  93 NE17G25   29.79R WCI  28
CLARINDA *     CLOUDY    39  39 100 NE15      29.79F WCI  31
COUNCIL BLFS * CLOUDY    37  37 100 NE17G23   29.80S WCI  28
CRESTON *      CLOUDY    39  39 100 NE16      29.78F WCI  30
HARLAN  *      CLOUDY    36  36 100 NE15G22   29.83R WCI  26
LAMONI         CLOUDY    39  37  92 NE15G25   29.76R WCI  31
6HR MIN TEMP:  39; 6HR MAX TEMP:  50;

RED OAK *      CLOUDY    39  37  93 NE17G25   29.79S WCI  30
SHENANDOAH *   CLOUDY    39  37  93 NE17      29.79S WCI  30
$$

IAZ047>049-059>061-072>074-084-231300-
   CENTRAL IOWA

CITY           SKY/WX    TMP DP  RH WIND       PRES   REMARKS
AMES           CLOUDY    38  36  92 NE14      29.81S WCI  30
6HR MIN TEMP:  38; 6HR MAX TEMP:  44;

ANKENY *       CLOUDY    37  36  93 NE13G20   29.82R WCI  29
BOONE *        CLOUDY    37  36  93 N20       29.79F WCI  27
CHARITON *     CLOUDY    39  37  93 NE14      29.78R WCI  31
DES MOINES     CLOUDY    40  36  86 NE16      29.80F WCI  31
6HR MIN TEMP:  40; 6HR MAX TEMP:  49;

GRINNELL*      CLOUDY    40  37  89 N15       29.80F WCI  31
KNOXVILLE *    CLOUDY    39  37  93 N15G22    29.76F WCI  31
MARSHALLTOWN   CLOUDY    39  37  92 N9        29.80R WCI  33
6HR MIN TEMP:  38; 6HR MAX TEMP:  41;

NEWTON *       CLOUDY    39  37  93 N12       29.79F WCI  32
PELLA *        CLOUDY    40  37  90 N13       29.79F WCI  33
PERRY *        CLOUDY    37  36  94 NE12      29.81F WCI  30
$$

IAZ004>006-015-016-023>025-035-036-231300-
   NORTH CENTRAL IOWA

CITY           SKY/WX    TMP DP  RH WIND       PRES   REMARKS
ALGONA *       CLOUDY    36  34  93 N13       29.84S WCI  27
CLARION *      CLOUDY    36  36 100 N13       29.83F WCI  27
ESTHERVILLE    CLOUDY    32  31  96 N14       29.84F WCI  22
6HR MIN TEMP:  32; 6HR MAX TEMP:  35;

FORT DODGE *   CLOUDY    36  30  80 N9        29.83F WCI  29
MASON CITY     CLOUDY    36  32  85 N12       29.84R WCI  28
6HR MIN TEMP:  36; 6HR MAX TEMP:  40;

FOREST CITY *  CLOUDY    34  32  93 N10G16    29.86R WCI  26
WEBSTER CITY * CLOUDY    37  34  87 N13G21    29.80F WCI  29
IOWA FALLS *   CLOUDY    38  35  87 N9        29.83R WCI  32
$$

IAZ007>011-017>019-026>030-037>042-050>054-066-231300-
   NORTHEAST IOWA

CITY           SKY/WX    TMP DP  RH WIND       PRES   REMARKS
CEDAR RAPIDS   CLOUDY    42  39  89 N14       29.78R
6HR MIN TEMP:  42; 6HR MAX TEMP:  46;

CHARLES CITY * CLOUDY    37  37 100 N9        29.83R WCI  31
CLINTON *      CLEAR     38  37  97 W3        29.77R
DECORAH *      CLOUDY    39  36  87 N7        29.78R WCI  34
DUBUQUE        CLEAR     40  37  89 N10       29.76F WCI  33
6HR MIN TEMP:  39; 6HR MAX TEMP:  46;

MONTICELLO *   PTCLDY    41  37  87 N9        29.77S
OELWEIN *      CLOUDY    39  37  93 N13       29.80S WCI  32
WATERLOO       CLOUDY    40  35  83 N9        29.81S WCI  34
6HR MIN TEMP:  39; 6HR MAX TEMP:  43;

$$

IAZ064-065-067-068-078-231300-
   EAST CENTRAL IOWA

CITY           SKY/WX    TMP DP  RH WIND       PRES   REMARKS
DAVENPORT      CLOUDY    43  40  89 N9        29.77R
6HR MIN TEMP:  42; 6HR MAX TEMP:  48;

IOWA CITY      CLOUDY    45  38  76 N12       29.80R
6HR MIN TEMP:  44; 6HR MAX TEMP:  52;

MUSCATINE *    MIX PCPN  45  39  81 N14G20    29.77F
QUAD CITIES    CLOUDY    45  41  86 N14G21    29.75R
$$

IAZ062-063-075>077-085>089-095>099-231300-
   SOUTHEAST IOWA

CITY           SKY/WX    TMP DP  RH WIND       PRES   REMARKS
BURLINGTON     CLOUDY    43  42  97 N13       29.75S
6HR MIN TEMP:  42; 6HR MAX TEMP:  55;

FAIRFIELD *    CLOUDY    41  39  93 N15       29.76F
KEOKUK *       PTCLDY    43  41  93 N9        29.74S
CENTERVILLE *  CLOUDY    39  37  93 N9        29.77R WCI  33
OTTUMWA        CLOUDY    42  39  89 N12G22    29.78R
6HR MIN TEMP:  38; 6HR MAX TEMP:  50;

WASHINGTON *   CLOUDY    43  41  93 N14       29.78F
$$

ABBREVIATIONS USED IN REMARKS
   TC - TEMPERATURES IN CELSIUS
  WCI - WIND CHILL INDEX
   HX - HEAT INDEX
  VSB - VISIBILITY
$$





USA.gov is the U.S. government's official web portal to all federal, state and local government web resources and services.